Regional Weather Roundup
Issued by NWS

Home | Current Version | Previous Version | Text Only | Print | Product List | Glossary On
Versions: 1 2 3 4 5 6 7 8 9 10 11 12 13 14 15 16 17 18 19 20 21 22 23 24 25 26 27 28 29 30 31 32 33 34 35 36 37 38 39 40 41 42 43 44 45 46 47 48 49
000
ASUS42 KFFC 070403
RWRGA
WEATHER ROUNDUP FOR GEORGIA
NATIONAL WEATHER SERVICE PEACHTREE CITY GA
1200 AM EDT TUE JUL 07 2015

NOTE: "FAIR" INDICATES FEW OR NO CLOUDS BELOW 12,000 FEET WITH NO
SIGNIFICANT WEATHER AND/OR OBSTRUCTIONS TO VISIBILITY.

* = USE WITH CAUTION. THE STATIONS MARKED WITH AN ASTERISK MAY NOT
REPORT WEATHER SUCH AS PRECIPITATION, FOG, OR THUNDER AND ARE NOT
QUALITY CONTROLLED BY NWS.

THE REMARK "TC" DENOTES TEMPERATURE READING IN DEGREES CELSIUS.

GAZ001>058-070500-
NORTH GEORGIA

CITY           SKY/WX    TMP DP  RH WIND       PRES   REMARKS
ATLANTA        PTCLDY    75  69  81 W7        30.14R
ATHENS         PTCLDY    74  70  87 CALM      30.12R
CHAMBLEE       PTCLDY    75  72  90 W5        30.14R
PEACHTREE CITY CLEAR     73  71  93 CALM      30.15R
ROME           CLEAR     73  70  90 CALM      30.12R
WEST ATLANTA   CLEAR     76  70  82 CALM      30.14R
GAINESVILLE    CLEAR     73  69  87 W5        30.16R
CARTERSVILLE   CLEAR     70  68  93 CALM      30.14R


CITY           SKY/WX    TMP DP  RH WIND       PRES   REMARKS
DALTON*        CLEAR     72  72 100 CALM      30.12S
MARIETTA       CLEAR     75  71  86 W8        30.15R
BLAIRSVILLE*     N/A     67  60  77 CALM      30.18S HAZE
$$

GAZ059>098-102>109-070500-
CENTRAL GEORGIA

CITY           SKY/WX    TMP DP  RH WIND       PRES   REMARKS
AUGUSTA-BUSH   CLEAR     72  70  93 CALM      30.08F
AUGUSTA-DANIEL CLEAR     79  70  74 S5        30.10S
COLUMBUS       CLEAR     76  70  82 CALM      30.12R
MACON          CLEAR     74  71  91 CALM      30.11S
ROBINS AFB     CLEAR     73  72  95 SE3       30.11S


CITY           SKY/WX    TMP DP  RH WIND       PRES   REMARKS
LAGRANGE*      CLEAR     74  74 100 CALM      30.15R
SYLVANIA*      PTCLDY    76  74  91 SW3       30.12S
MILLEDGEVILLE* CLEAR     77  70  78 CALM      30.11S
$$

GAZ099>101-110>166-070500-
SOUTH GEORGIA

CITY           SKY/WX    TMP DP  RH WIND       PRES   REMARKS
SAVANNAH       MOCLDY    74  71  91 SW6       30.11F
VALDOSTA       PTCLDY    75  73  93 CALM      30.12F
ALMA           PTCLDY    73  72  96 CALM      30.11F
ST SIMONS      CLOUDY    76  71  85 SW6       30.11F
FT STEWART     MOCLDY    75  71  89 VRB3      30.10S
ALBANY         CLEAR     74  71  91 CALM      30.14S
HUNTER AFB     MOCLDY    75  75 100 S3        30.09F
MOODY AFB      PTCLDY    76  71  84 S3        30.11F
BRUNSWICK      CLOUDY    73  72  94 CALM      30.12F


CITY           SKY/WX    TMP DP  RH WIND       PRES   REMARKS
BAINBRIDGE*    CLEAR     79  77  94 CALM      30.12S
MOULTRIE*      CLEAR     75  72  88 CALM      30.14R
VIDALIA*       PTCLDY    73  70  88 CALM      30.12S
WAYCROSS*      PTCLDY    78  76  94 CALM      30.12S
DOUGLAS*       CLEAR     77  73  88 CALM      30.13F
$$


USA.gov is the U.S. government's official web portal to all federal, state and local government web resources and services.